Location: Bastelaar
(51.0950°N, 3.8602°E)
Time: 02:39:45
(UTC+00:00)

BlueWalker 3 - Visible Passes

Search period start: 19 January 2026 00:00
Search period end: 29 January 2026 00:00
Orbit: 451 x 463 km, 53.2° (Epoch: 18 January)

Date Brightness Start Highest point End Pass type
(mag) Time Alt. Az. Time Alt. Az. Time Alt. Az.
20 Jan 4.2 17:59:26 10° SSE 17:59:36 10° SE 17:59:36 10° SE visible
21 Jan 3.9 18:58:27 10° SW 18:59:45 20° SSW 18:59:45 20° SSW visible
22 Jan 2.8 18:23:14 10° SSW 18:26:03 32° SSE 18:26:03 32° SSE visible
23 Jan 3.0 17:48:04 10° SSW 17:51:08 27° SE 17:52:17 22° ESE visible
23 Jan 4.3 19:24:46 10° WSW 19:26:01 20° WSW 19:26:01 20° WSW visible
24 Jan 3.3 17:12:57 10° SSW 17:15:48 22° SE 17:18:26 11° E visible
24 Jan 2.4 18:49:21 10° WSW 18:52:10 53° WSW 18:52:10 53° WSW visible
25 Jan 1.7 18:13:57 10° WSW 18:17:30 73° SSE 18:18:15 51° E visible
25 Jan 5.0 19:51:33 10° W 19:51:59 13° W 19:51:59 13° W visible
26 Jan 1.9 17:38:33 10° SW 17:42:04 62° SSE 17:44:17 21° ENE visible
26 Jan 3.6 19:16:05 10° W 19:18:01 29° WNW 19:18:01 29° WNW visible
27 Jan 2.2 17:03:09 10° SW 17:06:38 52° SSE 17:10:08 10° ENE visible
27 Jan 1.9 18:40:34 10° W 18:44:01 64° NNW 18:44:01 64° NNW visible
28 Jan 1.8 18:05:03 10° W 18:08:38 69° N 18:09:59 35° ENE visible
28 Jan 4.6 19:42:46 10° WNW 19:43:43 17° WNW 19:43:43 17° WNW visible
